Wind_Speed
17 18 17 19 22 22 23 21 19 19 17 14 10 8 9 8 8 6 5 6 5 5 15 9 4 4 6 4 2 5 3 4 4 4 2 1 2 1 2 1 1 2 2 1 1 2 2 11 4 4 3 6 13 13
15 16 18 18 22 21 24 22 21 20 20 16 12 9 8 8 9 5 5 7 7 10 11 15 16 11 10 5 4 4 1 1 0 4 1 2 1 1 2 1 2 2 3 3 3 4 2 3 3 3 5 11 11 15
12 13 17 17 20 19 23 23 21 21 21 18 13 9 8 8 9 6 7 7 7 10 19 17 13 11 8 6 3 3 3 3 3 3 4 2 2 3 2 2 2 1 2 2 1 3 5 6 3 8 12 15 17 16
12 11 17 18 20 22 24 23 21 19 20 18 13 10 9 8 9 8 8 7 6 5 3 4 3 9 6 5 4 3 2 1 3 2 2 2 2 3 3 2 3 2 1 1 3 5 3 3 9 14 14 12 12 14
12 12 16 22 20 22 24 23 21 20 20 16 13 9 10 8 9 10 9 8 7 4 4 10 7 5 10 6 5 3 1 1 2 1 1 2 2 4 1 1 0 3 4 3 4 4 3 5 9 11 11 10 13 15
12 12 16 15 23 19 22 24 22 21 20 16 13 11 10 9 8 5 4 11 10 7 4 4 3 2 9 8 6 3 2 1 1 1 2 2 2 2 3 1 3 5 6 4 3 3 6 11 12 5 6 13 16 17
13 11 12 15 22 19 25 26 23 21 19 15 13 10 10 10 8 8 2 2 10 7 4 6 7 1 9 8 5 2 4 1 1 1 2 2 3 3 2 2 8 9 6 6 5 5 6 8 7 8 12 16 18 17
12 11 10 13 21 18 23 26 24 22 19 15 11 9 10 10 9 12 8 6 7 5 3 1 4 1 8 5 4 4 4 5 1 1 0 0 2 2 1 5 6 7 7 8 6 8 10 13 12 11 13 16 15 15
12 10 12 16 17 19 22 25 22 22 19 14 10 9 7 6 4 4 5 5 9 6 3 3 2 3 4 4 3 2 2 2 0 2 1 1 2 1 3 12 9 9 7 3 6 11 13 14 11 11 11 8 11 12
11 9 11 15 18 19 25 26 26 24 19 14 9 6 5 4 5 8 5 4 6 6 6 4 4 2 3 3 2 2 2 1 2 2 2 3 2 4 8 14 14 14 10 8 8 6 7 7 1 4 7 9 8 5
11 9 9 15 17 20 26 28 28 24 19 13 8 4 4 7 8 5 3 3 5 3 7 6 12 2 4 3 3 1 2 1 2 3 2 1 1 2 11 7 6 5 3 2 1 5 7 7 4 6 9 7 8 8
12 9 12 16 18 25 28 31 29 26 16 11 6 7 8 5 4 2 3 2 4 5 7 7 8 7 4 3 4 1 3 2 2 1 2 1 2 4 11 9 5 3 0 1 3 2 4 6 8 7 12 15 12 12
14 11 13 15 20 24 30 31 29 27 16 10 4 4 3 4 1 5 6 4 3 5 9 9 4 7 4 3 6 3 3 2 0 3 2 3 1 3 7 7 5 3 3 7 5 5 6 9 10 11 11 11 10 10
18 16 18 15 21 28 31 28 29 23 12 5 5 4 5 4 5 5 4 3 6 4 16 16 7 3 4 4 2 3 1 2 2 0 3 2 1 3 2 4 5 7 8 7 6 3 4 4 7 8 8 8 5 5
19 20 20 22 27 36 34 28 27 23 6 5 5 4 6 10 7 6 10 6 3 6 18 9 7 4 3 4 2 3 2 2 3 3 2 2 5 4 4 5 4 5 6 7 5 4 2 1 0 3 4 3 3 5
22 20 25 32 37 39 35 25 24 13 3 3 6 4 7 2 6 8 10 13 6 12 10 6 4 4 2 4 3 3 4 4 3 3 4 7 8 6 6 6 5 5 6 6 6 5 4 5 6 4 5 4 4 6
22 22 27 43 42 39 28 26 17 6 7 5 6 9 13 13 11 5 8 8 13 11 3 5 4 2 4 3 2 3 4 3 5 6 8 8 7 4 2 1 3 2 2 4 4 3 0 5 8 6 3 5 5 7
32 28 39 46 45 33 24 20 6 6 1 5 6 7 6 6 4 6 9 18 11 6 4 3 6 3 3 4 2 3 4 5 6 6 8 8 5 6 3 3 4 6 6 3 2 3 3 5 6 8 8 8 6 8
44 54 47 47 38 22 14 7 2 1 9 3 8 8 2 4 9 15 16 16 17 16 12 4 4 2 2 3 5 7 6 5 6 7 7 7 6 5 4 3 3 8 10 4 2 2 3 5 6 10 10 8 11 13
47 50 49 37 30 11 7 5 5 3 3 2 3 4 4 4 14 17 18 17 14 6 5 3 2 4 3 5 7 10 8 6 3 3 5 9 9 8 8 6 6 10 9 3 3 1 3 5 7 8 8 7 9 11
43 42 32 37 15 3 4 6 4 1 3 5 5 5 4 12 13 15 13 11 7 3 3 4 8 11 14 13 10 8 6 4 2 3 4 6 9 10 9 8 7 10 7 4 2 0 3 8 6 7 6 9 12 9
32 31 32 20 4 2 6 4 6 6 7 3 3 6 6 5 6 6 5 6 5 5 5 7 10 10 9 7 6 4 2 3 4 6 8 9 9 9 9 10 8 10 9 5 5 2 5 7 8 9 13 10 9 5
33 28 12 4 5 5 2 3 1 4 3 3 4 4 4 3 3 4 4 3 5 8 11 9 8 6 4 3 1 1 3 3 6 9 8 6 6 7 8 9 11 12 7 4 4 4 6 10 10 10 9 7 6 6
10 6 4 3 3 3 1 3 3 4 4 4 3 2 2 2 3 5 2 3 5 7 7 6 4 2 1 4 6 6 7 9 12 12 10 8 7 8 10 11 9 7 6 3 3 9 8 8 8 5 6 7 8 11
5 6 4 4 3 2 3 3 3 4 3 2 3 2 2 2 3 3 1 1 5 5 5 3 2 2 4 7 8 8 10 11 10 8 4 4 3 5 3 3 5 7 6 6 9 8 8 5 3 6 5 4 7 6
4 2 2 2 1 3 2 3 2 2 2 2 3 2 2 3 3 1 2 3 7 7 4 1 4 7 7 8 7 6 6 5 3 2 2 2 6 7 5 3 2 1 3 8 8 5 4 3 6 7 7 3 4 1
5 4 4 4 4 6 6 6 5 5 4 3 0 1 2 3 1 2 4 5 4 3 1 5 6 8 8 7 4 3 2 7 8 9 8 8 6 3 1 1 2 1 2 4 5 8 10 10 9 7 5 4 6 8
6 11 5 6 9 10 4 5 4 3 3 5 2 4 2 1 3 2 4 5 2 3 6 8 10 11 8 5 3 2 6 5 6 5 2 1 3 4 6 6 5 5 7 8 6 5 7 8 10 12 13 12 12 14
6 11 6 9 8 8 8 4 3 5 8 5 2 0 1 1 1 2 3 3 4 7 11 14 12 10 9 8 6 6 8 4 2 3 5 4 3 4 6 5 7 9 10 9 11 11 10 11 13 14 15 15 14 12
10 12 5 6 5 4 6 5 4 5 6 6 3 2 3 4 4 6 7 8 10 12 7 2 3 5 3 6 8 8 8 5 4 7 9 9 10 15 16 10 11 12 15 15 14 13 13 13 13 13 11 11 14 16
5 6 5 6 3 3 6 5 5 5 4 2 4 4 5 6 5 5 5 4 1 6 6 1 4 5 8 7 4 3 4 6 9 10 7 11 14 9 8 6 7 7 9 13 16 16 17 18 18 17 18 20 19 21
6 5 3 2 1 4 4 4 5 6 6 4 3 5 5 5 5 6 6 6 7 4 3 3 5 3 3 4 5 6 9 11 10 11 12 12 8 10 11 11 12 13 15 17 19 20 21 24 25 19 19 22 14 19
2 3 4 3 3 3 6 6 3 3 4 3 5 11 9 5 5 6 4 3 5 4 2 2 6 6 6 7 10 9 7 8 10 12 14 14 14 10 9 12 15 17 17 19 20 21 22 21 20 20 23 23 23 24
Wind_Direction
272 257 231 234 229 228 223 224 231 230 226 237 244 260 274 279 278 275 238 232 248 273 282 272 276 310 346 14 84 338 10 350 30 67 110 215 111 303 41 1 360 100 53 338 80 169 198 348 352 92 244 327 321 322
286 253 224 233 228 230 223 223 226 228 225 230 242 251 263 271 272 276 217 227 260 264 274 287 279 268 285 292 313 356 129 276 326 93 92 126 87 54 153 207 2 46 161 186 183 203 240 302 108 44 321 276 297 314
289 259 223 234 229 227 225 223 224 226 224 225 235 246 256 264 270 259 229 234 279 281 290 275 259 243 251 244 244 308 2 6 25 39 147 149 111 126 128 255 116 36 140 132 37 242 248 238 305 333 332 301 291 288
286 253 228 230 222 231 226 218 221 223 221 220 226 240 253 258 264 252 241 232 262 286 285 279 269 214 205 187 215 259 311 356 5 342 80 127 143 180 198 169 132 196 105 139 276 301 11 206 250 330 335 332 311 299
277 255 232 225 229 228 220 216 216 217 217 213 220 234 245 258 260 257 247 228 232 259 281 291 308 162 184 199 205 200 184 357 14 25 61 228 179 115 352 79 120 197 156 138 220 264 250 278 316 330 344 347 338 321
279 265 237 241 225 221 217 212 212 211 210 208 215 232 239 258 262 263 231 228 227 244 293 314 292 208 180 178 193 224 196 6 128 201 207 226 153 129 111 150 248 186 193 214 241 292 291 319 324 326 351 343 338 330
276 268 257 233 221 226 215 207 206 207 203 204 208 227 236 251 255 225 228 230 195 213 252 303 321 120 173 183 207 219 196 162 222 202 206 189 174 165 110 162 195 190 195 220 254 287 292 308 326 317 312 323 326 334
269 261 248 229 214 221 209 202 200 200 194 197 204 225 237 256 270 246 234 229 185 205 254 261 269 124 164 175 170 175 181 197 197 333 265 265 124 44 50 270 208 191 216 241 255 277 288 291 306 318 319 318 335 336
267 253 231 215 223 212 202 196 195 190 183 189 202 215 231 254 245 220 224 192 203 225 258 208 197 202 171 129 127 131 166 73 326 70 357 64 347 209 238 308 302 231 232 258 279 288 285 290 301 330 331 310 329 343
257 248 228 211 208 198 189 187 187 179 173 182 176 177 201 205 216 171 182 188 205 216 226 238 225 235 137 125 78 114 55 124 110 262 338 70 247 331 341 314 291 241 244 262 293 321 343 354 19 4 357 349 356 348
251 231 225 197 190 187 185 181 174 164 167 170 181 188 188 166 156 193 218 208 188 233 209 226 206 177 142 118 154 83 149 6 92 261 124 4 279 350 6 24 83 134 231 188 261 1 39 61 78 64 34 24 32 43
234 210 188 183 183 183 183 181 177 167 172 176 155 128 149 195 213 193 217 245 204 222 194 188 197 190 139 138 104 118 114 57 184 309 85 265 249 24 28 44 83 114 109 237 209 55 92 51 63 76 72 54 36 39
214 199 183 177 183 186 183 178 174 164 167 163 144 143 196 187 195 200 194 239 235 201 182 172 154 145 136 111 80 94 84 217 153 49 241 227 208 32 46 58 73 93 117 116 110 124 85 78 83 76 84 94 105 103
204 196 188 190 191 184 171 160 156 170 174 163 156 199 203 207 233 198 201 205 219 223 170 161 121 140 116 72 120 99 203 106 69 198 240 249 40 74 65 38 42 60 66 68 99 90 85 68 87 89 94 101 92 69
205 196 186 195 202 176 163 171 175 177 181 175 204 223 216 231 244 243 234 243 229 171 157 126 90 109 39 99 24 102 127 221 210 224 226 166 130 102 64 69 84 76 69 64 63 3 136 171 181 117 116 98 62 26
200 199 198 192 179 169 162 169 171 180 193 224 228 253 237 240 256 227 229 242 236 169 152 121 97 74 72 128 125 180 152 209 232 203 151 154 163 156 120 61 62 67 63 58 56 16 330 214 200 184 141 114 65 38
194 207 190 180 167 157 160 162 153 206 219 218 249 257 266 276 257 228 206 193 165 159 112 103 85 137 121 90 130 187 194 214 149 139 147 155 166 179 173 98 47 48 43 41 34 37 148 170 164 152 151 109 57 36
190 180 185 161 155 149 152 157 215 213 255 270 280 300 293 255 227 174 155 155 152 112 99 115 123 93 135 155 223 217 171 141 141 148 160 159 165 171 167 125 48 30 13 341 360 35 114 158 171 155 138 113 87 91
162 159 163 158 144 142 157 198 88 320 241 265 267 281 246 87 107 119 125 122 113 108 109 84 78 123 205 199 144 146 165 171 168 177 184 195 204 217 226 244 321 341 346 338 334 6 121 135 141 141 135 122 124 111
138 142 146 141 141 132 161 173 178 223 273 235 282 100 60 82 93 94 107 111 102 77 61 62 163 159 147 142 130 129 124 129 151 206 228 223 226 245 249 265 303 325 342 355 328 18 129 140 145 145 149 136 139 125
139 141 138 148 134 191 140 133 143 145 345 358 189 211 73 84 82 83 74 88 71 58 95 102 118 115 114 115 112 110 104 87 44 352 326 301 253 253 254 263 286 311 311 311 339 357 152 151 140 141 149 154 157 143
129 134 140 160 176 116 76 168 180 185 198 175 77 61 58 47 42 41 58 61 66 60 74 107 126 134 116 113 113 112 79 5 346 328 302 279 272 269 267 264 271 305 302 268 285 232 158 162 158 143 140 129 156 168
131 141 130 106 56 50 250 271 12 38 72 37 48 52 32 40 40 28 70 66 76 85 91 91 110 128 130 133 131 326 324 294 324 322 305 288 270 256 250 255 270 287 290 258 265 227 158 161 175 173 175 192 216 217
109 114 122 105 88 206 325 31 47 56 67 50 57 71 48 43 27 58 61 46 94 94 92 88 87 114 279 294 289 282 293 294 302 302 285 266 257 261 264 270 263 253 244 196 183 155 189 184 190 216 261 262 269 268
60 43 47 7 317 34 61 33 33 60 70 45 79 30 15 50 67 48 30 50 144 140 131 112 101 323 313 306 295 286 283 294 300 299 254 254 254 277 260 194 144 136 137 150 172 154 152 161 189 187 249 298 289 234
74 44 50 39 54 91 65 77 75 107 102 73 52 81 66 68 65 291 257 157 169 170 169 236 315 315 316 313 310 310 314 311 294 212 173 141 128 127 129 119 65 201 183 166 186 197 200 180 220 243 266 231 256 210
48 357 36 42 72 93 77 76 79 67 49 59 104 78 76 76 168 249 178 164 154 159 282 307 314 315 316 323 315 325 102 92 92 99 108 121 134 143 75 244 291 330 208 209 232 245 256 252 242 247 271 250 262 276
30 23 37 28 64 57 77 54 46 33 5 3 41 40 74 133 233 173 176 181 203 288 309 308 312 309 292 278 274 212 161 123 101 87 64 299 250 245 283 280 256 250 258 242 284 308 261 257 251 261 267 267 271 275
29 12 56 39 54 50 42 45 45 42 6 17 85 34 339 358 162 171 186 217 274 299 313 316 309 294 260 239 224 205 187 189 217 274 314 324 268 234 343 327 271 256 253 259 251 264 294 263 262 268 269 268 266 268
17 24 70 45 55 44 27 39 39 25 25 29 14 315 279 273 277 267 264 272 283 297 313 129 357 7 15 203 200 196 198 216 266 304 316 320 316 306 310 277 253 256 253 253 247 255 265 254 259 270 269 265 268 267
26 34 60 51 75 43 14 4 345 331 320 292 308 321 321 317 335 351 315 296 200 162 167 360 1 80 95 93 98 178 231 278 290 285 302 313 315 329 347 318 276 274 260 250 252 260 259 261 261 267 284 284 275 273
39 47 75 76 69 2 7 16 14 16 21 48 49 35 11 359 7 37 59 87 133 129 32 36 130 79 22 316 293 271 262 267 264 259 281 292 288 292 301 303 300 293 286 277 265 263 268 275 272 264 266 267 289 279
65 65 70 67 47 39 25 353 1 359 33 54 50 27 26 23 41 51 110 21 347 326 242 247 267 292 307 316 330 318 302 300 286 281 281 281 286 278 289 316 321 315 295 278 272 273 274 270 265 268 277 277 270 271
Height
1469 1469 1471 1474 1477 1480 1483 1485 1489 1491 1495 1497 1499 1500 1501 1501 1501 1501 1500 1501 1502 1499 1491 1490 1489 1489 1488 1486 1487 1484 1484 1482 1483 1492 1495 1498 1498 1498 1497 1496 1496 1500 1504 1507 1507 1502 1500 1488 1487 1492 1497 1491 1488 1483
1464 1465 1467 1469 1472 1476 1478 1482 1485 1488 1492 1494 1496 1498 1499 1499 1499 1499 1500 1500 1500 1499 1492 1488 1487 1487 1487 1487 1487 1485 1487 1486 1486 1490 1494 1498 1498 1499 1502 1503 1495 1502 1501 1505 1506 1505 1493 1493 1493 1493 1492 1489 1485 1483
1460 1460 1463 1466 1468 1471 1475 1478 1481 1485 1488 1491 1494 1496 1497 1497 1497 1497 1497 1498 1498 1496 1488 1484 1483 1484 1484 1485 1487 1488 1486 1486 1486 1486 1488 1492 1494 1497 1501 1499 1495 1496 1497 1501 1502 1494 1493 1492 1491 1491 1490 1486 1482 1481
1457 1457 1459 1461 1464 1467 1470 1474 1478 1481 1485 1488 1491 1493 1494 1494 1495 1495 1495 1496 1497 1497 1493 1482 1481 1482 1483 1484 1486 1487 1487 1487 1487 1487 1487 1490 1491 1492 1496 1493 1495 1495 1495 1499 1497 1492 1491 1490 1490 1490 1487 1482 1479 1477
1454 1454 1454 1457 1459 1462 1466 1470 1474 1478 1482 1485 1489 1491 1492 1492 1492 1492 1493 1494 1495 1499 1494 1483 1480 1480 1482 1484 1485 1486 1486 1487 1487 1487 1489 1490 1489 1490 1494 1493 1494 1492 1493 1498 1501 1492 1492 1490 1490 1488 1485 1481 1477 1473
1450 1450 1451 1452 1454 1457 1462 1466 1471 1475 1479 1483 1486 1489 1490 1490 1491 1491 1491 1491 1493 1495 1494 1488 1480 1479 1481 1483 1484 1485 1485 1486 1486 1487 1487 1487 1487 1488 1495 1497 1491 1490 1490 1491 1491 1491 1490 1487 1486 1485 1483 1480 1477 1474
1446 1445 1445 1448 1451 1454 1458 1462 1468 1473 1477 1481 1484 1486 1488 1488 1488 1490 1490 1490 1490 1494 1493 1487 1479 1478 1479 1481 1482 1483 1484 1485 1486 1486 1486 1486 1487 1486 1492 1495 1488 1489 1490 1489 1490 1489 1487 1485 1484 1483 1481 1478 1476 1473
1441 1441 1442 1444 1448 1451 1454 1460 1465 1470 1475 1479 1481 1484 1486 1486 1487 1487 1488 1489 1490 1491 1490 1490 1482 1478 1479 1480 1481 1482 1483 1484 1485 1485 1486 1485 1486 1487 1492 1487 1487 1488 1489 1488 1489 1488 1486 1484 1483 1482 1480 1477 1474 1471
1437 1437 1438 1441 1444 1447 1452 1458 1463 1468 1473 1478 1481 1483 1485 1486 1485 1485 1486 1487 1489 1493 1488 1487 1484 1482 1477 1477 1479 1481 1482 1485 1486 1486 1487 1488 1492 1493 1490 1487 1488 1488 1487 1487 1487 1485 1483 1482 1481 1480 1477 1476 1475 1473
1433 1434 1435 1437 1441 1444 1450 1456 1462 1467 1473 1478 1481 1484 1484 1483 1484 1485 1487 1487 1488 1486 1485 1482 1478 1476 1475 1476 1480 1482 1482 1487 1489 1490 1488 1490 1492 1489 1488 1486 1483 1483 1485 1487 1486 1484 1482 1481 1479 1478 1476 1475 1474 1474
1429 1431 1432 1435 1439 1444 1449 1454 1459 1466 1472 1477 1479 1480 1482 1482 1484 1484 1484 1484 1482 1481 1477 1474 1474 1472 1474 1477 1480 1482 1486 1488 1491 1491 1489 1494 1493 1489 1488 1485 1482 1483 1484 1485 1485 1484 1482 1481 1480 1479 1478 1478 1477 1477
1426 1428 1431 1434 1438 1443 1448 1453 1459 1466 1472 1476 1477 1479 1481 1482 1482 1482 1482 1479 1477 1473 1469 1469 1470 1471 1473 1475 1477 1483 1486 1489 1489 1489 1489 1492 1490 1489 1488 1486 1485 1485 1485 1485 1485 1485 1484 1483 1483 1482 1481 1480 1481 1482
1423 1427 1430 1434 1438 1443 1448 1453 1459 1466 1472 1476 1476 1478 1478 1479 1482 1478 1475 1473 1470 1461 1462 1464 1468 1468 1473 1474 1479 1481 1485 1491 1488 1490 1490 1490 1488 1489 1489 1488 1487 1487 1486 1486 1487 1486 1485 1485 1485 1486 1485 1485 1485 1485
1419 1424 1428 1432 1437 1443 1448 1454 1461 1467 1472 1473 1475 1479 1476 1472 1468 1463 1461 1459 1457 1456 1457 1461 1464 1466 1470 1475 1480 1481 1487 1487 1492 1492 1489 1488 1487 1488 1489 1489 1489 1489 1489 1488 1488 1489 1488 1487 1486 1486 1487 1488 1488 1486
1416 1421 1426 1432 1436 1441 1449 1456 1462 1467 1469 1471 1471 1468 1463 1458 1456 1456 1456 1456 1456 1455 1458 1461 1465 1467 1473 1478 1481 1484 1486 1487 1488 1488 1487 1485 1486 1487 1488 1489 1490 1489 1489 1489 1487 1491 1490 1489 1488 1486 1486 1487 1487 1486
1412 1418 1421 1430 1434 1440 1449 1457 1463 1467 1466 1466 1465 1460 1455 1455 1453 1452 1452 1453 1455 1456 1458 1459 1465 1471 1477 1478 1478 1480 1485 1485 1485 1483 1483 1485 1486 1488 1489 1489 1489 1489 1489 1489 1490 1490 1489 1489 1488 1487 1486 1487 1487 1486
1409 1412 1417 1423 1434 1443 1452 1458 1463 1466 1466 1461 1456 1452 1451 1450 1449 1448 1448 1450 1452 1455 1459 1461 1467 1472 1477 1480 1481 1482 1483 1481 1480 1482 1483 1485 1486 1488 1489 1489 1489 1489 1490 1490 1490 1490 1489 1489 1489 1489 1488 1487 1487 1485
1404 1411 1416 1423 1433 1446 1454 1458 1462 1460 1456 1455 1454 1450 1449 1448 1446 1446 1447 1449 1453 1454 1458 1463 1467 1472 1476 1477 1480 1478 1478 1479 1481 1483 1484 1486 1487 1487 1488 1488 1489 1489 1489 1489 1490 1489 1489 1489 1490 1490 1490 1491 1490 1490
1402 1407 1420 1430 1439 1445 1454 1457 1455 1457 1457 1456 1453 1450 1448 1447 1446 1446 1448 1451 1453 1455 1459 1463 1469 1475 1476 1475 1475 1476 1477 1479 1481 1483 1484 1485 1486 1487 1487 1488 1488 1488 1488 1488 1488 1488 1488 1489 1490 1491 1492 1493 1493 1492
1409 1418 1426 1435 1443 1448 1453 1456 1457 1456 1453 1453 1451 1450 1448 1448 1449 1450 1452 1454 1456 1459 1463 1467 1471 1471 1472 1472 1474 1476 1478 1480 1481 1482 1483 1484 1484 1485 1486 1486 1486 1486 1486 1486 1487 1487 1487 1488 1489 1490 1492 1492 1493 1493
1421 1427 1435 1442 1445 1446 1448 1452 1454 1453 1450 1451 1453 1453 1451 1451 1452 1454 1457 1458 1460 1465 1468 1469 1470 1472 1473 1475 1477 1478 1479 1481 1481 1482 1482 1482 1482 1483 1483 1484 1484 1484 1484 1485 1485 1485 1486 1487 1489 1490 1491 1490 1492 1493
1429 1436 1442 1446 1446 1445 1446 1447 1452 1453 1454 1452 1451 1452 1454 1457 1458 1460 1461 1462 1466 1469 1470 1471 1472 1474 1475 1477 1479 1480 1481 1482 1481 1481 1480 1480 1480 1480 1481 1482 1483 1482 1482 1482 1483 1484 1484 1486 1488 1489 1490 1492 1493 1494
1438 1442 1443 1444 1445 1448 1450 1448 1448 1448 1450 1454 1455 1458 1461 1462 1463 1464 1466 1468 1469 1471 1472 1473 1474 1476 1478 1479 1480 1480 1481 1481 1481 1480 1479 1478 1478 1478 1478 1479 1480 1480 1481 1482 1482 1482 1483 1485 1487 1489 1491 1492 1493 1493
1440 1444 1446 1448 1451 1452 1450 1449 1451 1452 1455 1458 1460 1463 1464 1465 1465 1466 1470 1470 1472 1473 1474 1476 1477 1478 1479 1480 1480 1480 1480 1479 1479 1478 1476 1476 1476 1476 1476 1476 1476 1478 1479 1480 1481 1482 1483 1485 1487 1488 1489 1489 1489 1490
1444 1450 1450 1450 1449 1451 1452 1454 1455 1456 1462 1462 1463 1465 1466 1466 1469 1473 1474 1473 1474 1475 1476 1477 1478 1479 1479 1479 1479 1479 1478 1477 1476 1475 1475 1475 1475 1475 1475 1475 1476 1478 1479 1480 1482 1483 1484 1485 1487 1487 1488 1487 1487 1487
1449 1450 1450 1450 1451 1451 1454 1458 1459 1461 1462 1464 1466 1467 1467 1469 1472 1478 1475 1474 1475 1476 1477 1478 1478 1478 1478 1477 1477 1476 1476 1475 1474 1474 1475 1476 1476 1477 1477 1478 1479 1479 1480 1481 1482 1483 1484 1485 1486 1486 1486 1486 1485 1486
1454 1453 1452 1452 1452 1454 1457 1459 1461 1462 1464 1466 1468 1468 1469 1473 1475 1475 1474 1475 1476 1477 1477 1477 1477 1477 1477 1476 1476 1476 1476 1475 1475 1476 1476 1478 1478 1479 1479 1479 1479 1480 1480 1480 1481 1482 1482 1482 1483 1483 1483 1483 1483 1484
1456 1456 1455 1456 1455 1457 1460 1464 1467 1471 1471 1471 1470 1473 1474 1474 1476 1474 1475 1476 1476 1476 1477 1476 1476 1475 1475 1475 1475 1475 1476 1477 1477 1478 1478 1479 1479 1479 1479 1479 1478 1479 1479 1479 1479 1479 1479 1479 1479 1480 1480 1480 1480 1480
1461 1459 1459 1461 1462 1465 1470 1472 1473 1474 1475 1473 1474 1475 1475 1475 1475 1475 1475 1475 1476 1476 1475 1474 1472 1471 1471 1472 1474 1475 1476 1477 1478 1478 1478 1478 1478 1478 1477 1477 1476 1476 1476 1477 1477 1477 1477 1476 1476 1476 1476 1476 1476 1476
1465 1464 1465 1468 1471 1475 1476 1476 1476 1476 1476 1476 1476 1476 1475 1474 1474 1474 1474 1474 1474 1474 1474 1473 1472 1471 1469 1470 1472 1474 1476 1477 1477 1477 1476 1476 1476 1475 1473 1472 1472 1472 1472 1473 1473 1474 1473 1473 1473 1473 1473 1472 1471 1471
1470 1470 1472 1474 1477 1478 1478 1477 1477 1476 1476 1476 1476 1476 1475 1473 1472 1472 1472 1471 1471 1472 1474 1474 1474 1473 1473 1473 1474 1475 1476 1476 1475 1475 1474 1474 1473 1472 1471 1470 1470 1469 1469 1469 1469 1469 1469 1469 1468 1468 1468 1467 1467 1466
1474 1475 1477 1478 1479 1479 1478 1477 1477 1477 1476 1476 1476 1475 1475 1474 1473 1473 1473 1474 1474 1475 1475 1475 1474 1474 1474 1474 1474 1474 1473 1473 1473 1472 1472 1472 1471 1470 1469 1469 1468 1466 1465 1464 1464 1463 1462 1461 1460 1462 1459 1460 1459 1457
1478 1478 1478 1478 1479 1480 1480 1479 1478 1478 1478 1478 1479 1478 1477 1477 1477 1477 1477 1477 1477 1476 1476 1476 1475 1475 1474 1474 1473 1472 1471 1470 1470 1469 1469 1468 1467 1467 1466 1465 1463 1461 1459 1457 1456 1456 1455 1454 1454 1453 1453 1453 1452 1451